This is the latest recevied weather packets stored in our database for station/object EB2GLU-13. If no packets are shown the sender has not sent any weather packets the latest 10 day(s).
| Time | Temp. | Humidity | Pressure | Rain* | Wind** | Luminosity | Snow |
|---|---|---|---|---|---|---|---|
| 1777925269 | 12.22° C | 89% | 1014.4 hPa | 0 mm | - | - | - |
| 1777924520 | 12.78° C | 89% | 1014.2 hPa | 0 mm | - | - | - |
| 1777923769 | 12.78° C | 88% | 1014 hPa | 0 mm | - | - | - |
| 1777923019 | 13.33° C | 86% | 1014.1 hPa | 0 mm | - | - | - |
| 1777922269 | 13.33° C | 85% | 1014 hPa | 0 mm | - | - | - |
| 1777921519 | 13.89° C | 84% | 1013.8 hPa | 0 mm | - | - | - |
| 1777920769 | 14.44° C | 84% | 1013.8 hPa | 0 mm | - | - | - |
| 1777920019 | 13.89° C | 81% | 1013.6 hPa | 0 mm | - | - | - |
| 1777919269 | 13.33° C | 84% | 1013.4 hPa | 0 mm | - | - | - |
| 1777918519 | 13.89° C | 87% | 1013.6 hPa | 0 mm | - | - | - |
| 1777917019 | 14.44° C | 85% | 1013.7 hPa | 0 mm | - | - | - |
| 1777916269 | 14.44° C | 85% | 1013.4 hPa | 0 mm | - | - | - |
| 1777915519 | 14.44° C | 84% | 1013.6 hPa | 0 mm | - | - | - |
| 1777914769 | 14.44° C | 81% | 1013.8 hPa | 0 mm | - | - | - |
| 1777914019 | 15° C | 79% | 1013.7 hPa | 0 mm | - | - | - |
| 1777913269 | 14.44° C | 80% | 1013.6 hPa | 0 mm | - | - | - |
| 1777912519 | 14.44° C | 81% | 1013.4 hPa | 0 mm | - | - | - |
| 1777911769 | 15° C | 79% | 1013.5 hPa | 0 mm | - | - | - |
| 1777911019 | 15.56° C | 80% | 1013.4 hPa | 0 mm | - | - | - |
| 1777910269 | 15° C | 77% | 1013.2 hPa | 0 mm | - | - | - |
| 1777909519 | 15° C | 80% | 1013.2 hPa | 0 mm | - | - | - |
| 1777908769 | 15° C | 78% | 1013.1 hPa | 0 mm | - | - | - |
| 1777908019 | 15° C | 79% | 1013.4 hPa | 0 mm | - | - | - |
| 1777907269 | 15° C | 82% | 1013.3 hPa | 0 mm | - | - | - |
| 1777906519 | 15° C | 79% | 1013.2 hPa | 0 mm | - | - | - |
* Rain latest hour (hover to see other rain measurements)
** Current wind speed in m/s (hover to see current wind gust speed)